TimeEDT,TemperatureF,Dew PointF,Humidity,Sea Level PressureIn,VisibilityMPH,Wind Direction,Wind SpeedMPH,Gust SpeedMPH,PrecipitationIn,Events,Conditions,WindDirDegrees,DateUTC
12:53 AM,66.9,61.0,81,30.10,10.0,NNE,4.6,-,N/A,,Clear,30,2011-11-03 04:53:00
1:53 AM,66.9,61.0,81,30.09,10.0,North,3.5,-,N/A,,Scattered Clouds,10,2011-11-03 05:53:00
2:53 AM,66.9,61.0,81,30.08,10.0,North,3.5,-,N/A,,Clear,360,2011-11-03 06:53:00
3:53 AM,66.0,61.0,84,30.07,10.0,North,4.6,-,N/A,,Partly Cloudy,360,2011-11-03 07:53:00
4:53 AM,66.0,62.1,87,30.07,10.0,North,5.8,-,N/A,,Clear,10,2011-11-03 08:53:00
5:53 AM,64.4,62.6,94,30.07,10.0,NNE,4.6,-,N/A,,Clear,20,2011-11-03 09:53:00
6:53 AM,64.0,62.1,93,30.08,10.0,NNE,3.5,-,N/A,,Clear,30,2011-11-03 10:53:00
7:53 AM,64.0,61.0,90,30.08,8.0,NNE,4.6,-,N/A,,Clear,30,2011-11-03 11:53:00
8:53 AM,68.0,63.0,84,30.09,10.0,NE,6.9,-,N/A,,Clear,50,2011-11-03 12:53:00
9:53 AM,73.0,64.0,73,30.10,10.0,NNE,6.9,-,N/A,,Clear,30,2011-11-03 13:53:00
10:53 AM,75.9,63.0,64,30.10,10.0,NNE,6.9,-,N/A,,Clear,30,2011-11-03 14:53:00
11:53 AM,79.0,61.0,54,30.09,10.0,Variable,6.9,-,N/A,,Partly Cloudy,0,2011-11-03 15:53:00
12:53 PM,80.1,60.1,50,30.06,10.0,East,10.4,-,N/A,,Scattered Clouds,100,2011-11-03 16:53:00
2:53 PM,79.0,60.1,52,30.00,10.0,East,5.8,-,N/A,,Scattered Clouds,90,2011-11-03 18:53:00
3:53 PM,79.0,61.0,54,29.98,10.0,NE,8.1,-,N/A,,Overcast,40,2011-11-03 19:53:00
4:53 PM,78.1,64.9,64,29.98,10.0,NW,8.1,-,N/A,,Mostly Cloudy,310,2011-11-03 20:53:00
5:53 PM,77.0,66.0,69,29.98,10.0,NW,5.8,-,N/A,,Clear,310,2011-11-03 21:53:00
6:53 PM,75.2,66.2,73,29.98,10.0,NNW,4.6,-,N/A,,Clear,330,2011-11-03 22:53:00
7:53 PM,73.0,66.0,79,29.98,10.0,NNW,4.6,-,N/A,,Mostly Cloudy,340,2011-11-03 23:53:00
8:53 PM,73.0,66.0,79,29.99,10.0,NNW,4.6,-,N/A,,Clear,330,2011-11-04 00:53:00
9:53 PM,73.0,64.9,76,30.00,10.0,North,3.5,-,N/A,,Mostly Cloudy,350,2011-11-04 01:53:00
10:53 PM,71.1,64.9,81,30.00,10.0,North,3.5,-,N/A,,Clear,350,2011-11-04 02:53:00
11:53 PM,69.1,64.9,87,29.99,10.0,Calm,Calm,-,N/A,,Clear,0,2011-11-04 03:53:00